sat.trackr.live / text

‹ back to catalog

STARLINK-30858

NORAD 58358 · 2023-177H

PAYLOAD ACTIVE UNKNOWN

§ Identity

Operator
Country
US
Launch date
2023-11-18
Launch site
AFETR
Launch vehicle
Mass (kg)
RCS (m²)

Purposes: comms

External: N2YO · Heavens-Above · Gunter

§ Orbital elements

Epoch: 2026-05-24T18:03:40.103136Z

Period
94.27 min
Inclination
43.0010°
Eccentricity
0.0001122
Mean motion
15.27580426 rev/d
Perigee alt
482.3 km
Apogee alt
483.8 km
Semi-major
6,861.2 km
B*
1.4685e-5
RAAN
280.7567°
Arg perigee
267.3185°
Mean anomaly
92.7538°
Rev number
13,987

§ Raw data

STARLINK-308581 58358U 23177H   26144.75254749  .00000142  00000+0  14685-4 0  99932 58358  43.0010 280.7567 0001122 267.3185  92.7538 15.27580426139874

JSON: /api/v1/satellites/58358 · /tle

For live sub-satellite position, see the globe view (requires WebGL).

§ Visibility from observer

Set your observer location to see the next 7 days of passes ≥ 10°. The values pass through the URL so the page stays shareable.

No JS? Fill the form by hand. The geolocation button needs JavaScript.